Location: Middlebury
(44.0153°N, 73.1678°W)
Time: 04:44:34
(UTC-04:00)

DIWATA 2B (PO-101) - Pass Details

Date: 22 June 2024
Orbit: 575 x 586 km, 98.1° (Epoch: 17 July)

Event Time Altitude Azimuth Distance (km) Brightness Sun altitude
Rises 03:09:04 0° 122° (ESE) 2,780 ? -15.9°
Reaches altitude 10° 03:11:55 10° 100° (E) 1,887 ? -15.6°
Maximum altitude 03:14:21 16° 63° (ENE) 1,562 ? -15.4°
Drops below altitude 10° 03:16:47 10° 26° (NNE) 1,898 ? -15.1°
Sets 03:19:40 0° 4° (N) 2,805 ? -14.8°
